Location: La Combe
(44.2394°N, 6.5239°E)
Time: 04:43:18
(UTC+00:00)

Daily predictions for brighter satellites

Satellite Brightness Start Highest point End
(mag) Time Altitude Azimuth Time Altitude Azimuth Time Altitude Azimuth
Resurs 1-4 Rocket 4.4 00:04:15 10° NE 00:06:09 17° ENE 00:06:09 17° ENE
SL-16 R/B 4.4 00:08:38 10° NW 00:09:54 16° NW 00:09:54 16° NW
COSMOS 2455 4.0 00:18:19 39° N 00:18:19 39° N 00:22:27 10° NNE
NOSS 3-1 (A) 4.4 00:11:07 10° NNW 00:18:29 59° NE 00:19:53 53° E
NOSS 3-1 (C) 4.4 00:41:49 10° NW 00:47:20 52° WNW 00:47:20 52° WNW
ADEOS II 3.8 00:56:46 10° NE 01:00:26 26° E 01:00:26 26° E
Meteor 1-11 Rocket 4.4 01:04:10 10° N 01:09:03 55° NE 01:09:03 55° NE
Meteor 1-27 Rocket 4.4 01:15:56 48° ENE 01:15:56 48° ENE 01:20:30 10° NNE
USA 234 3.2 01:11:07 10° NE 01:17:35 73° NNW 01:17:35 73° NNW
Lacrosse 5 rocket 3.7 01:17:01 20° N 01:18:42 25° NNE 01:22:30 10° E
SL-16 R/B 2.7 01:23:17 64° NNW 01:23:17 64° NNW 01:28:30 10° NNW
Cosmos 968 Rocket 4.4 01:25:34 44° N 01:25:34 44° N 01:29:15 10° NNE
CZ-2D R/B 2.7 01:23:38 10° NNE 01:27:57 56° N 01:27:57 56° N
SL-8 Rocket 4.5 01:29:38 10° N 01:35:48 56° ENE 01:37:07 48° ESE
Cosmos 2263 Rocket 3.7 01:38:15 26° NW 01:38:15 26° NW 01:42:21 10° N
IDEFIX/ARIANE 42P 3.9 01:37:57 10° NNE 01:42:35 31° E 01:43:20 30° ESE
NPP 4.0 01:39:32 10° N 01:44:01 59° NNW 01:44:01 59° NNW
Resurs 1-4 Rocket 2.8 01:43:11 10° N 01:47:14 45° NNW 01:47:14 45° NNW
Cosmos 1503 Rocket 4.3 01:49:14 62° NNE 01:49:14 62° NNE 01:53:32 10° NNE
ADEOS Rocket 3.7 01:45:57 25° SE 01:49:17 52° ENE 01:55:41 10° N
Cosmos 962 Rocket 4.4 01:45:11 10° N 01:51:12 77° WNW 01:51:12 77° WNW
Cosmos 2218 Rocket 4.2 01:46:55 10° N 01:53:02 64° E 01:54:49 45° SE
Cosmos 1844 Rocket 2.7 01:55:14 72° NNW 01:55:14 72° NNW 02:00:24 10° NNE
Cosmos 1354 Rocket 4.1 02:02:43 69° NNW 02:02:43 69° NNW 02:07:29 10° NNE
Cosmos 1733 Rocket 3.7 02:00:27 10° N 02:04:16 55° NE 02:04:16 55° NE
Cosmos 2278 Rocket 3.9 02:09:19 19° SE 02:11:54 27° ESE 02:16:33 10° NE
SL-4 R/B 3.4 02:11:57 38° NNW 02:12:30 40° NNW 02:17:03 10° ENE
Cosmos 1833 Rocket 4.3 02:10:24 10° N 02:15:30 33° NE 02:20:34 10° ESE
Cosmos 2366 rocket 3.8 02:09:35 10° N 02:15:47 90° NNW 02:17:31 51° S
Cosmos 1862 Rocket 3.7 02:17:29 69° ENE 02:17:29 69° ENE 02:21:45 10° NNE
Cosmos 864 Rocket 4.4 02:11:07 10° N 02:17:26 90° NE 02:19:29 46° S
Cosmos 1959 Rocket 4.4 02:14:53 10° N 02:21:17 83° W 02:23:17 47° S
ARIANE 5 R/B 3.2 02:19:41 10° NNE 02:24:47 50° E 02:26:51 32° SSE
USA 305 3.0 02:26:53 73° NE 02:26:53 73° NE 02:30:49 10° NE
CZ-4B R/B 3.7 02:23:06 10° NNE 02:27:49 60° ESE 02:28:54 47° SSE
Cosmos 1844 3.9 02:27:27 51° W 02:28:05 54° WNW 02:33:45 10° NNE
IRS-1D 3.6 02:26:45 10° N 02:31:43 56° WNW 02:31:57 55° W
ARGOS Delta rocket 3.8 02:27:46 10° N 02:31:59 60° NW 02:31:59 60° NW
MSX 4.1 02:27:58 10° NNE 02:33:42 66° ESE 02:36:23 32° S
Cosmos 1777 Rocket 3.9 02:33:00 64° SSW 02:33:51 86° WNW 02:39:06 10° NNE
Cosmos 2341 Rocket 4.4 02:29:01 10° NNW 02:34:52 42° W 02:35:02 42° W
CBERS-1 4.0 02:31:57 10° N 02:36:59 60° WNW 02:37:31 57° W
ADEOS II 2.6 02:36:08 10° N 02:41:02 41° WNW 02:41:23 40° WNW
IRS-1C 4.0 02:36:01 10° NNE 02:41:23 88° ESE 02:43:11 44° SSW
Cosmos 1975 2.9 02:37:41 10° N 02:41:46 73° E 02:42:37 52° SSE
ERBS 4.0 02:42:47 26° ESE 02:42:47 26° ESE 02:45:20 10° ENE
USA 306 2.9 02:43:28 63° WNW 02:43:46 66° NNW 02:48:04 10° NE
CZ-2C R/B 4.0 02:41:14 10° NE 02:45:19 29° E 02:49:29 10° SSE
Cosmos 2181 Rocket 4.3 02:44:17 42° WSW 02:45:41 48° WNW 02:51:48 10° N
Meteor 2-4 Rocket 4.2 02:43:38 22° S 02:47:33 65° E 02:53:26 10° NNE
SJ 16-02 1.5 02:48:53 46° S 02:50:04 71° ESE 02:54:29 10° NNE
CZ-4C R/B 4.4 02:44:30 10° NNW 02:50:54 36° NE 02:58:15 10° ESE
Cosmos 1538 Rocket 3.9 02:47:34 10° NNW 02:52:59 85° WSW 02:58:22 10° SSE
BREEZE-M DEB (TANK) 2.7 02:48:57 10° WNW 02:54:28 72° NNE 02:56:56 10° ESE
Okean 1 4.0 02:55:20 38° WNW 02:55:20 38° WNW 02:58:46 10° N
Cosmos 773 Rocket 4.3 02:51:41 10° NNW 02:56:39 43° WSW 02:56:56 42° WSW
USA 307 3.2 02:56:11 47° WNW 02:57:01 57° NNW 03:01:17 10° NE
Lacrosse 5 rocket 1.5 02:53:49 10° NW 02:58:23 90° NW 03:03:01 10° SE
USA 234 4.4 02:54:17 10° NE 03:00:05 35° NNW 03:04:55 14° WNW
Cosmos 1238 Rocket 4.4 02:57:09 10° NNW 03:02:27 37° W 03:03:50 33° WSW
SL-08 R/B 3.3 03:00:33 20° S 03:03:55 69° WSW 03:08:50 10° NNW
SL-16 R/B 4.4 03:08:22 12° WNW 03:08:22 12° WNW 03:09:37 10° WNW
CZ-2D R/B 4.1 03:05:48 10° NNW 03:08:19 13° NW 03:09:16 13° WNW
USA 308 3.4 03:08:00 35° WNW 03:09:20 49° NNW 03:13:31 10° NE
Okean 1-7 2.9 03:14:47 26° SSW 03:17:08 81° W 03:21:27 10° N
ATLAS 5 CENTAUR R/B 3.2 03:11:43 10° NNW 03:17:09 52° NE 03:23:31 10° ESE
ALOS 3.8 03:16:32 10° NNE 03:20:50 35° E 03:25:06 10° SSE
IDEFIX/ARIANE 42P 3.3 03:17:28 10° N 03:22:10 35° WNW 03:24:08 26° WSW
Cosmos 1680 Rocket 4.1 03:18:43 10° NNW 03:23:58 61° ENE 03:29:13 10° SSE
Cosmos 158 Rocket 3.7 03:20:09 10° NNW 03:25:08 77° WSW 03:30:00 10° SSE
Cosmos 1934 Rocket 4.2 03:18:49 10° N 03:25:12 78° E 03:31:28 10° SSE
Cosmos 1908 Rocket 3.8 03:21:41 10° NNW 03:25:55 48° W 03:28:57 18° SSW
BREEZE M DEB (TANK) 4.3 03:31:07 19° SSW 03:31:17 19° SSW 03:36:16 10° SSE
Cosmos 2082 Rocket 2.6 03:26:05 10° NNW 03:31:42 65° ENE 03:37:15 10° SE
Meteor 1-13 Rocket 4.4 03:28:59 10° S 03:34:53 82° E 03:40:42 10° NNE
CZ-2D R/B 3.9 03:31:17 10° N 03:35:06 42° WNW 03:37:07 24° SW
ADEOS Rocket 3.9 03:32:53 21° SW 03:35:12 27° W 03:40:35 10° NW
CZ-2C R/B 2.7 03:39:35 10° N 03:43:17 63° WNW 03:46:22 14° SSW
FENGYUN 3A 4.0 03:41:00 10° NNE 03:46:24 69° ESE 03:51:45 10° S
COSMOS 2406 3.3 03:41:13 10° NW 03:46:40 50° WSW 03:52:05 10° S
Cosmos 923 Rocket 3.9 03:43:10 10° NNW 03:48:20 64° WSW 03:53:28 10° S
Cosmos 1703 Rocket 4.3 03:47:33 18° SW 03:50:09 34° WNW 03:54:07 10° N
Cosmos 1484 Rocket 3.6 03:48:13 10° NNE 03:52:06 53° E 03:55:59 10° S
SL-4 R/B 3.8 03:48:37 10° WNW 03:53:04 35° N 03:57:24 10° ENE
SL-24 R/B 4.2 03:48:34 10° SSE 03:53:15 81° ENE 03:57:22 10° N
Cosmos 1782 Rocket 3.9 03:49:00 10° NNW 03:53:16 45° W 03:57:31 10° SSW
CZ-4C R/B 3.8 03:51:23 10° SSE 03:54:55 55° ENE 03:58:24 10° N
Cosmos 1066 Rocket 4.3 03:49:29 10° S 03:55:16 89° E 04:01:10 10° N
Cosmos 2278 Rocket 2.6 03:51:11 15° SW 03:55:40 48° WNW 04:01:11 10° NNE
Okean 3 3.6 03:53:14 10° SSW 03:57:27 57° W 04:01:42 10° N
Sich 1 Rocket 3.6 03:53:52 10° N 03:58:26 82° W 04:03:00 10° S
NOSS 3-3 (A) 4.0 03:54:04 14° SW 03:59:10 69° NW 04:05:45 10° NE
NOSS 3-3 (C) 4.0 03:54:10 13° SW 03:59:16 70° NW 04:05:51 10° NE
Cosmos 1833 Rocket 3.1 03:54:14 10° NW 03:59:30 41° WSW 04:04:43 10° S
Cosmos 1766 4.3 03:55:53 10° N 03:59:46 50° ENE 04:03:38 10° SSE
USA 81 4.1 03:55:15 10° NNW 04:00:26 57° W 04:05:35 10° SSW
ARIANE 5 R/B 3.8 03:59:27 10° N 04:03:33 24° WNW 04:07:12 12° WSW
ATLAS 2AS CENTAUR R/B 4.2 03:58:56 10° NNW 04:05:53 40° NE 04:12:19 10° ESE
USA 305 4.4 04:03:13 10° WNW 04:06:56 28° NNW 04:10:40 10° NE
Cosmos 1356 Rocket 3.3 04:09:03 10° NNW 04:13:05 72° W 04:17:10 10° S
Cosmos 1300 Rocket 3.6 04:10:29 10° NNW 04:14:53 65° W 04:19:17 10° S
Abrixas rocket 1.3 04:13:33 10° WNW 04:15:37 49° SSW 04:17:42 10° SE
Cosmos 1898 Rocket 3.7 04:11:57 10° SW 04:17:04 56° WNW 04:22:15 10° NNE
PSLV R/B 3.8 04:12:58 10° N 04:17:06 49° WNW 04:21:11 10° SW
Cosmos 1378 4.0 04:14:39 10° SW 04:17:57 30° WNW 04:21:17 10° NNW
Cosmos 2297 4.1 04:12:41 10° SSW 04:18:23 71° ESE 04:24:07 10° NNE
ERBS 3.3 04:15:35 11° W 04:18:32 34° NW 04:21:37 10° NE
Meteor 1-15 Rocket 4.2 04:14:10 10° NNW 04:19:43 69° W 04:25:13 10° S
FALCON 9 DEB 3.4 04:17:26 10° NW 04:20:55 71° NNE 04:24:21 10° ESE
Landsat 5 3.6 04:18:11 10° S 04:22:30 62° W 04:26:58 10° NNW
CZ-2C R/B 3.2 04:19:26 10° N 04:23:31 31° WNW 04:27:41 10° SW
Gbstr 26 Del rocket 3.5 04:18:31 10° WSW 04:24:03 66° NNW 04:28:32 10° NE
ADEOS 4.2 04:19:13 10° NNE 04:24:23 60° ESE 04:29:32 10° S
Cosmos 1937 Rocket 3.5 04:21:20 10° SSW 04:26:26 64° WNW 04:31:34 10° NNE
Cosmos 2112 Rocket 4.4 04:23:26 10° NNW 04:28:26 44° WSW 04:33:26 10° S
SJ 16-02 3.3 04:26:54 10° W 04:29:11 14° NW 04:31:28 10° NNW
Cosmos 2369 Rocket 4.0 04:24:29 10° SSE 04:29:26 33° ESE 04:34:24 10° NE
H-2A R/B 2.0 04:25:58 10° SSE 04:30:06 89° NE 04:34:19 10° NNW
